Change the Weather History Date:

Saturday, December 1, 2012

  Actual Average Record
Temperature  
Mean Temperature 34 °F -  
Max Temperature 37 °F 46 °F 63 °F (2001)
Min Temperature 32 °F 32 °F 19 °F (1958)
Degree Days  
Heating Degree Days 30    
Moisture  
Dew Point 32 °F    
Average Humidity 89    
Maximum Humidity 100    
Minimum Humidity 64    
Precipitation  
Precipitation 0.00 in - - ()
Sea Level Pressure  
Sea Level Pressure 30.53 in    
Wind  
Wind Speed 7 mph (NNE)    
Max Wind Speed 12 mph    
Max Gust Speed -    
Visibility 7 miles    
Events Snow    
Averages and records for this station are not official NWS values.
T = Trace of Precipitation, MM = Missing Value Source: NWS Daily Summary

Daily Weather History Graph

Daily Weather History Graph

Search for Another Location

Airport or City:

Trip Planner

Search our weather history database for the weather conditions in past years. The results will help you decide how hot, cold, wet, or windy it might be!

Date:

Astronomy

Dec. 01, 2012 Rise Set
Actual Time 6:52 AM EST 4:15 PM EST
Civil Twilight 6:21 AM EST 4:46 PM EST
Nautical Twilight 5:47 AM EST 5:21 PM EST
Astronomical Twilight 5:13 AM EST 5:54 PM EST
Moon 7:03 PM EST (12/1) 9:03 AM EST (12/1)
Length of Visible Light 10h 25m
Length of Day
9h 23m
Waning Gibbous, 92% of the Moon is Illuminated
Dec 1
Waning Gibbous
Dec 6
Last Quarter
Dec 13
New
Dec 20
First Quarter
Dec 28
Full

Hourly Weather History & Observations

Time (EST) Temp. Windchill Dew Point Humidity Pressure Visibility Wind Dir Wind Speed Gust Speed Precip Events Conditions
1:53 AM 32.0 °F 25.6 °F 21.0 °F 64% 30.53 in 10.0 mi NNE 6.9 mph - N/A   Overcast
2:53 AM 33.1 °F 28.7 °F 21.9 °F 64% 30.53 in 10.0 mi NNE 4.6 mph - N/A   Overcast
3:53 AM 33.1 °F 27.7 °F 23.0 °F 66% 30.53 in 10.0 mi NNE 5.8 mph - N/A   Overcast
4:53 AM 32.0 °F 25.6 °F 25.0 °F 75% 30.53 in 10.0 mi NNE 6.9 mph - 0.00 in   Overcast
5:53 AM 32.0 °F 26.4 °F 26.1 °F 79% 30.53 in 9.0 mi NE 5.8 mph - 0.00 in Snow Light Snow
6:53 AM 32.0 °F 24.2 °F 28.0 °F 85% 30.56 in 10.0 mi NNE 9.2 mph - 0.00 in   Overcast
7:39 AM 32.0 °F 23.0 °F 28.4 °F 87% 30.57 in 4.0 mi NE 11.5 mph - 0.00 in Snow Light Snow
7:53 AM 32.0 °F 24.2 °F 28.9 °F 88% 30.58 in 4.0 mi NNE 9.2 mph - 0.00 in Snow Light Snow
8:11 AM 32.0 °F 23.6 °F 28.4 °F 87% 30.58 in 1.8 mi NE 10.4 mph - 0.00 in Snow Light Snow
8:51 AM 32.0 °F 24.2 °F 30.2 °F 93% 30.58 in 3.0 mi NE 9.2 mph - 0.00 in Snow Light Snow
8:53 AM 32.0 °F 24.2 °F 30.0 °F 92% 30.59 in 4.0 mi NE 9.2 mph - 0.00 in Snow Light Snow
9:13 AM 33.8 °F 27.0 °F 30.2 °F 87% 30.59 in 6.0 mi NE 8.1 mph - 0.00 in Snow Light Snow
9:53 AM 34.0 °F 27.2 °F 30.9 °F 89% 30.59 in 10.0 mi ENE 8.1 mph - 0.00 in   Overcast
10:08 AM 33.8 °F 27.0 °F 32.0 °F 93% 30.58 in 10.0 mi NE 8.1 mph - N/A   Overcast
10:53 AM 35.1 °F 28.6 °F 33.1 °F 92% 30.56 in 10.0 mi NE 8.1 mph - N/A   Overcast
11:53 AM 36.0 °F 30.3 °F 33.1 °F 89% 30.53 in 10.0 mi NE 6.9 mph - N/A   Overcast
12:53 PM 36.0 °F 29.6 °F 34.0 °F 93% 30.53 in 10.0 mi NNE 8.1 mph - N/A   Overcast
1:53 PM 36.0 °F 29.0 °F 34.0 °F 93% 30.51 in 7.0 mi NE 9.2 mph - N/A   Overcast
2:53 PM 36.0 °F 30.3 °F 34.0 °F 93% 30.51 in 6.0 mi NE 6.9 mph - N/A   Overcast
3:12 PM 37.4 °F 32.8 °F 35.6 °F 93% 30.51 in 7.0 mi NNE 5.8 mph - N/A   Overcast
3:14 PM 37.4 °F 32.1 °F 35.6 °F 93% 30.51 in 7.0 mi NNE 6.9 mph - N/A   Overcast
3:53 PM 36.0 °F 29.6 °F 33.1 °F 89% 30.52 in 5.0 mi North 8.1 mph - N/A   Overcast
4:28 PM 35.6 °F 28.6 °F 33.8 °F 93% 30.51 in 8.0 mi NNE 9.2 mph - N/A   Overcast
4:53 PM 37.0 °F 31.6 °F 35.1 °F 93% 30.52 in 8.0 mi NNE 6.9 mph - N/A   Overcast
5:02 PM 37.4 °F 32.1 °F 35.6 °F 93% 30.52 in 7.0 mi NNE 6.9 mph - N/A   Overcast
5:45 PM 35.6 °F 28.6 °F 33.8 °F 93% 30.53 in 7.0 mi NNE 9.2 mph - N/A   Overcast
6:00 PM 35.6 °F 30.7 °F 35.6 °F 100% 30.53 in 7.0 mi NNE 5.8 mph - N/A   Overcast
6:14 PM 35.6 °F 30.7 °F 33.8 °F 93% 30.53 in 6.0 mi North 5.8 mph - N/A   Overcast
6:37 PM 35.6 °F 31.7 °F 33.8 °F 93% 30.53 in 6.0 mi NNW 4.6 mph - N/A   Overcast
6:53 PM 36.0 °F 32.1 °F 34.0 °F 93% 30.53 in 6.0 mi North 4.6 mph - N/A   Overcast
7:27 PM 35.6 °F 31.7 °F 35.6 °F 100% 30.51 in 6.0 mi NE 4.6 mph - N/A   Overcast
7:53 PM 37.0 °F 34.5 °F 35.1 °F 93% 30.51 in 6.0 mi North 3.5 mph - N/A   Overcast
8:53 PM 37.9 °F 34.4 °F 36.0 °F 93% 30.50 in 9.0 mi North 4.6 mph - N/A   Overcast
9:15 PM 37.4 °F 33.8 °F 35.6 °F 93% 30.49 in 8.0 mi NNE 4.6 mph - N/A   Overcast
9:53 PM 37.9 °F 34.4 °F 36.0 °F 93% 30.49 in 8.0 mi NNW 4.6 mph - N/A   Overcast
10:43 PM 37.4 °F 34.9 °F 35.6 °F 93% 30.48 in 6.0 mi NNW 3.5 mph - N/A   Overcast
10:53 PM 37.0 °F 33.3 °F 35.1 °F 93% 30.48 in 6.0 mi North 4.6 mph - N/A   Overcast
11:53 PM 37.9 °F 35.5 °F 36.0 °F 93% 30.46 in 6.0 mi NNW 3.5 mph - N/A   Overcast